Location: *
(51.5000°N, 0.1100°W)
Time: 19:32:43
(UTC+00:00)

Meteor 1-12 Rocket - Pass Details

Date: 25 May 2024
Orbit: 855 x 925 km, 81.2° (Epoch: 16 June)

Event Time Altitude Azimuth Distance (km) Brightness Sun altitude
Rises 23:59:22 0° 346° (NNW) 3,516 8.9 -17.5°
Reaches altitude 10° 00:01:49 10° 347° (NNW) 2,582 7.9 -17.5°
Maximum altitude 00:07:44 89° 258° (WSW) 916 4.3 -17.5°
Enters shadow 00:11:07 27° 170° (S) 1,666 5.2 -17.4°
